Regional Weather Roundup
Issued by NWS

Home | Current Version | Previous Version | Graphics & Text | Print | Product List | Glossary Off
Versions: 1 2 3 4 5 6 7 8 9 10 11 12 13 14 15 16 17 18 19 20 21 22 23 24 25 26 27

000
ASUS45 KBOU 301907
RWRCO

WEATHER ROUNDUP FOR COLORADO
NATIONAL WEATHER SERVICE DENVER/BOULDER CO
100 PM MDT SAT JUL 30 2016

NOTE: "FAIR" INDICATES FEW OR NO CLOUDS BELOW 12000 FEET WITH NO
SIGNIFICANT WEATHER AND/OR OBSTRUCTIONS TO VISIBILITY.

COZ001>005-013-030-031-302000-
...NORTHWEST COLORADO...

CITY           SKY/WX    TMP DP  RH WIND       PRES   REMARKS
CRAIG          FAIR      91  30  11 N6        30.13F
HAYDEN         FAIR      84  32  15 W5        30.16F
MEEKER         FAIR      88  34  14 SE8       30.14F
MOUNT WERNER   NOT AVBL
STEAMBOAT SPGS FAIR      82  37  19 S8        30.18F
WALDEN         FAIR      77  28  16 N7        30.28S
$$

COZ006>008-011-302000-
...WEST CENTRAL VALLEYS...

CITY           SKY/WX    TMP DP  RH WIND       PRES   REMARKS
GRAND JUNCTION FAIR      90  40  17 W8        30.05F
MONTROSE       FAIR      87  41  19 N12       30.15F
EAGLE          SUNNY     88  30  12 CALM      30.16F
RIFLE          FAIR      88  36  15 NW7       30.08F
DELTA          NOT AVBL
NUCLA          NOT AVBL
$$

COZ017>023-064>068-302000-
...SOUTHWEST COLORADO...

CITY           SKY/WX    TMP DP  RH WIND       PRES   REMARKS
DURANGO        FAIR      85  42  22 VRB3      30.19F
CORTEZ         FAIR      88  43  20 CALM      30.13F
PAGOSA SPRINGS FAIR      81  34  18 CALM      30.28F
TELLURIDE      FAIR      79  37  22 CALM      30.42S
WOLF CREEK PAS FAIR      55  39  54 SW12G18   30.65F THUNDER
$$

COZ009-010-012-014-032>034-037-058>063-302000-
...CENTRAL COLORADO...

CITY           SKY/WX    TMP DP  RH WIND       PRES   REMARKS
ASPEN          FAIR      85  30  13 N12       30.26F
BUENA VISTA    FAIR      83  29  14 S3        30.24F
COPPER MTN     FAIR      64  19  17 NW12G25   30.63S
BERTHOUD PASS  FAIR      55  41  58 NW22      30.64F
COTTONWOOD PAS FAIR      77  27  15 SW5G21    30.42F
GUNNISON       FAIR      81  39  22 W17       30.29F
KREMMLING      FAIR      90  14   6 W9        30.22F
LEADVILLE      FAIR      74  24  15 W12G20    30.43F
MONARCH PASS   FAIR      64  32  29 MISG      30.71F
SALIDA         NOT AVBL
SUNLIGHT       FAIR      72  30  21 MISG      30.56F
WILKERSON PASS FAIR      63  28  27 NW7       30.57S
$$

COZ069>075-302000-
...SAN LUIS VALLEY/SANGRE DE CRISTO MOUNTAINS...

CITY           SKY/WX    TMP DP  RH WIND       PRES   REMARKS
ALAMOSA          N/A     82  41  23 MISG      30.25F
LA VETA PASS   FAIR      75  39  27 SW6       30.48S
SAGUACHE       FAIR      81  41  24 SW8       30.28F
$$

COZ035-036-038>040-302000-
...NORTHERN COLORADO FRONT RANGE...

CITY           SKY/WX    TMP DP  RH WIND       PRES   REMARKS
DENVER INTL AP FAIR      86  52  30 N8        30.05F
DMNS CITY PARK   N/A     84  55  37 E3        30.04F
AURORA         MOSUNNY   83  53  35 NE6       30.07F
FRONT RANGE AP MOSUNNY   86  52  30 N9        30.06F
ERIE MUNI ARPT FAIR      84  55  37 NE5       30.03F
BOULDER MUN AP FAIR      82  55  39 CALM      30.04F
CENTENNIAL     FAIR      84  50  30 N7        30.08F
BROOMFIELD     SUNNY     82  55  39 E7        30.08F
LONGMONT       NOT AVBL
$$

COZ041-046-047-076>085-087-088-302000-
...PIKES PEAK/PALMER DIVIDE AND SOUTHERN FOOTHILLS...

CITY           SKY/WX    TMP DP  RH WIND       PRES   REMARKS
COLO. SPRINGS  FAIR      85  52  32 SE10      30.10F
A. F. ACADEMY  MOSUNNY   84  49  29 S9G17     30.11F
SCHRIEVER AFB  NOT AVBL
ELLICOTT       NOT AVBL
FALCON         NOT AVBL
FORT CARSON    FAIR      84  56  39 E6        30.06F
LIMON          FAIR      86  54  33 VRB6      30.04F
MONUMENT HILL  FAIR      82  36  18 N14       30.18F
TRINIDAD       NOT AVBL
$$

COZ042>045-048>051-090-091-302000-
...NORTHEAST COLORADO...

CITY           SKY/WX    TMP DP  RH WIND       PRES   REMARKS
GREELEY ARPT   FAIR      82  64  54 E6        30.02F
AKRON          FAIR      87  52  29 SE16G22   30.01F
BURLINGTON     FAIR      83  62  49 E16       30.00F
WRAY           NOT AVBL
STERLING       NOT AVBL
HOLYOKE        NOT AVBL
FORT MORGAN    NOT AVBL
$$

COZ086-089-092>099-302000-
...SOUTHEAST COLORADO...

CITY           SKY/WX    TMP DP  RH WIND       PRES   REMARKS
PUEBLO         FAIR      90  57  32 VRB5      29.97F
LA JUNTA       FAIR      89  59  36 S6        29.96F
LAMAR          FAIR      89  61  38 NE8       29.93F
SPRINGFIELD      N/A     91  56  30 S18G28    29.99F
$$




USA.gov is the U.S. government's official web portal to all federal, state and local government web resources and services.